OE3APM-13 Weather Reports


Display with metric or nautical units.
time (UTC)temp
F
wind
direction
speed
MPH
gust
MPH
rain 1hr
in
rain 24hr
in
rain mn
in
humidity
%
barometer
mb
20260504151144 78 96 6.0 11.0 0.00 0.00 0.00 37 1011.9
20260504150642 79 91 4.0 11.0 0.00 0.00 0.00 36 1011.9
20260504150140 79 103 5.0 11.0 0.00 0.00 0.00 37 1011.9
20260504141133 79 67 5.0 12.0 0.00 0.00 0.00 34 1012.4
20260504140632 79 97 5.0 12.0 0.00 0.00 0.00 33 1012.5
20260504140126 79 186 4.0 9.0 0.00 0.00 0.00 34 1012.5
20260504130609 78 253 3.0 7.0 0.00 0.00 0.00 36 1013.0
20260504130108 78 210 5.0 10.0 0.00 0.00 0.00 35 1013.2
20260504120107 76 328 3.0 7.0 0.00 0.00 0.00 36 1013.6
20260504110602 74 57 3.0 6.0 0.00 0.00 0.00 41 1014.1
20260504100556 72 265 4.0 7.0 0.00 0.00 0.00 47 1014.8
20260504081531 64 282 4.0 8.0 0.00 0.00 0.00 55 1015.1
20260504081031 64 275 4.0 8.0 0.00 0.00 0.00 54 1015.0
20260504080532 64 266 4.0 9.0 0.00 0.00 0.00 54 1015.0
20260504050438 49 50 1.0 4.0 0.00 0.00 0.00 74 1013.9
20260504045937 49 17 0.0 3.0 0.00 0.00 0.00 77 1013.9
20260504045437 48 17 0.0 0.0 0.00 0.00 0.00 77 1013.9
20260504044937 48 17 0.0 2.0 0.00 0.00 0.00 77 1013.8
20260504044437 48 17 1.0 3.0 0.00 0.00 0.00 77 1013.8
20260504043938 48 17 1.0 3.0 0.00 0.00 0.00 75 1013.8
20260504043432 48 27 1.0 2.0 0.00 0.00 0.00 75 1013.8
20260504042932 48 27 1.0 3.0 0.00 0.00 0.00 74 1013.8
20260504042435 48 34 1.0 4.0 0.00 0.00 0.00 73 1013.8
20260504041933 48 34 1.0 4.0 0.00 0.00 0.00 73 1013.7
20260504041430 48 30 1.0 4.0 0.00 0.00 0.00 73 1013.7
20260504040931 48 30 2.0 4.0 0.00 0.00 0.00 73 1013.7
20260504040432 48 42 2.0 4.0 0.00 0.00 0.00 73 1013.7
20260504035933 48 38 1.0 4.0 0.00 0.00 0.00 72 1013.7
20260504035432 48 43 1.0 3.0 0.00 0.00 0.00 74 1013.6
20260504034925 48 43 2.0 4.0 0.00 0.00 0.00 75 1013.6
20260504034412 48 38 2.0 4.0 0.00 0.00 0.00 72 1013.6
20260504033907 48 34 3.0 5.0 0.00 0.00 0.00 72 1013.6
20260504033404 48 45 3.0 5.0 0.00 0.00 0.00 72 1013.6
20260504032903 48 28 3.0 5.0 0.00 0.00 0.00 72 1013.6
20260504032405 48 43 3.0 5.0 0.00 0.00 0.00 72 1013.6
20260504031904 48 27 4.0 5.0 0.00 0.00 0.00 72 1013.6
20260504031402 49 23 4.0 6.0 0.00 0.00 0.00 71 1013.6
20260504030905 49 34 4.0 6.0 0.00 0.00 0.00 72 1013.6
20260504030401 49 40 4.0 6.0 0.00 0.00 0.00 71 1013.6
20260504025902 49 27 3.0 6.0 0.00 0.00 0.00 71 1013.7
20260504025403 49 46 2.0 5.0 0.00 0.00 0.00 71 1013.7
20260504024904 49 32 1.0 4.0 0.00 0.00 0.00 71 1013.7
20260504024402 49 53 1.0 3.0 0.00 0.00 0.00 71 1013.7
20260504023905 49 57 2.0 5.0 0.00 0.00 0.00 71 1013.7
20260504023359 49 15 3.0 5.0 0.00 0.00 0.00 70 1013.7
20260504022851 50 26 4.0 5.0 0.00 0.00 0.00 70 1013.7
20260504022345 50 15 3.0 6.0 0.00 0.00 0.00 69 1013.7
20260504021840 50 5 3.0 7.0 0.00 0.00 0.00 69 1013.6
20260504021341 50 82 3.0 7.0 0.00 0.00 0.00 68 1013.6
20260504020840 50 74 3.0 7.0 0.00 0.00 0.00 68 1013.6
20260504020337 50 63 3.0 7.0 0.00 0.00 0.00 68 1013.6
20260504015837 51 49 3.0 6.0 0.00 0.00 0.00 68 1013.5
20260504015337 51 33 3.0 7.0 0.00 0.00 0.00 68 1013.5
20260504014835 51 78 3.0 7.0 0.00 0.00 0.00 68 1013.6
20260504014333 51 66 2.0 5.0 0.00 0.00 0.00 68 1013.6
20260504013833 51 74 3.0 5.0 0.00 0.00 0.00 69 1013.6
20260504013335 51 67 4.0 6.0 0.00 0.00 0.00 67 1013.6
20260504012835 51 35 4.0 6.0 0.00 0.00 0.00 67 1013.6
20260504012333 51 31 4.0 6.0 0.00 0.00 0.00 66 1013.5
20260504011833 51 13 3.0 7.0 0.00 0.00 0.00 66 1013.5
20260504011334 52 73 3.0 7.0 0.00 0.00 0.00 65 1013.5
20260504010832 52 40 4.0 7.0 0.00 0.00 0.00 65 1013.5
20260504010330 52 21 3.0 6.0 0.00 0.00 0.00 65 1013.6
20260504005830 53 11 2.0 5.0 0.00 0.00 0.00 64 1013.5
20260504005324 53 109 3.0 5.0 0.00 0.00 0.00 64 1013.5
20260504004819 53 49 4.0 7.0 0.00 0.00 0.00 63 1013.6
20260504004315 53 36 4.0 7.0 0.00 0.00 0.00 62 1013.5
20260504003815 53 37 3.0 5.0 0.00 0.00 0.00 62 1013.4
20260504003317 54 52 3.0 6.0 0.00 0.00 0.00 61 1013.5
20260504002817 54 59 3.0 6.0 0.00 0.00 0.00 61 1013.4
20260504002315 54 40 3.0 8.0 0.00 0.00 0.00 60 1013.4
20260504001811 54 90 3.0 8.0 0.00 0.00 0.00 60 1013.4
20260504001309 54 65 3.0 8.0 0.00 0.00 0.00 60 1013.4
20260504000810 54 63 3.0 8.0 0.00 0.00 0.00 60 1013.5
20260504000308 55 66 3.0 7.0 0.00 0.00 0.00 59 1013.5
20260503235809 55 22 3.0 7.0 0.00 0.00 0.00 59 1013.5
20260503235309 55 42 3.0 8.0 0.00 0.00 0.00 59 1013.4
20260503234804 55 43 4.0 8.0 0.00 0.00 0.00 59 1013.4
20260503234303 55 33 3.0 7.0 0.00 0.00 0.00 59 1013.4
20260503233801 55 44 3.0 6.0 0.00 0.00 0.00 58 1013.4
20260503233301 55 19 3.0 7.0 0.00 0.00 0.00 58 1013.4
20260503232802 55 16 3.0 7.0 0.00 0.00 0.00 58 1013.4
20260503232301 55 54 3.0 7.0 0.00 0.00 0.00 58 1013.5
20260503231759 56 43 3.0 7.0 0.00 0.00 0.00 57 1013.5
20260503231252 56 64 3.0 7.0 0.00 0.00 0.00 57 1013.6
20260503230747 56 36 3.0 7.0 0.00 0.00 0.00 57 1013.6
20260503230235 56 40 2.0 5.0 0.00 0.00 0.00 56 1013.7
20260503225734 56 71 3.0 7.0 0.00 0.00 0.00 56 1013.7
20260503225235 56 54 3.0 7.0 0.00 0.00 0.00 56 1013.7
20260503224733 56 44 3.0 7.0 0.00 0.00 0.00 56 1013.8
20260503224233 57 37 3.0 7.0 0.00 0.00 0.00 55 1013.7
20260503223732 57 52 3.0 5.0 0.00 0.00 0.00 55 1013.7
20260503223231 57 53 3.0 5.0 0.00 0.00 0.00 55 1013.7
20260503222730 58 77 3.0 7.0 0.00 0.00 0.00 55 1013.7
20260503222230 58 39 3.0 8.0 0.00 0.00 0.00 54 1013.7
20260503221730 58 66 3.0 8.0 0.00 0.00 0.00 54 1013.7
20260503221229 58 58 3.0 8.0 0.00 0.00 0.00 54 1013.7
20260503220732 59 75 4.0 8.0 0.00 0.00 0.00 53 1013.7
20260503220228 59 80 3.0 8.0 0.00 0.00 0.00 53 1013.8
20260503215726 59 52 3.0 8.0 0.00 0.00 0.00 52 1013.7
20260503215227 60 70 3.0 8.0 0.00 0.00 0.00 52 1013.7
20260503214726 60 65 3.0 8.0 0.00 0.00 0.00 52 1013.7
20260503214227 60 67 4.0 9.0 0.00 0.00 0.00 51 1013.7
20260503213723 60 93 4.0 9.0 0.00 0.00 0.00 51 1013.7
20260503213224 60 43 4.0 10.0 0.00 0.00 0.00 52 1013.7
20260503212721 60 48 3.0 10.0 0.00 0.00 0.00 51 1013.8
20260503212226 60 67 3.0 11.0 0.00 0.00 0.00 51 1013.8
20260503211717 60 103 4.0 11.0 0.00 0.00 0.00 51 1013.8
20260503211218 60 62 4.0 9.0 0.00 0.00 0.00 50 1013.9
20260503210715 60 34 3.0 8.0 0.00 0.00 0.00 51 1013.9
20260503210214 61 108 3.0 8.0 0.00 0.00 0.00 50 1013.9
20260503205712 61 37 4.0 10.0 0.00 0.00 0.00 50 1014.0
20260503205209 61 31 3.0 10.0 0.00 0.00 0.00 50 1014.0
20260503204710 61 61 3.0 8.0 0.00 0.00 0.00 50 1014.0
20260503204206 61 82 4.0 9.0 0.00 0.00 0.00 49 1014.0
20260503203703 61 83 4.0 10.0 0.00 0.00 0.00 49 1014.0
20260503203203 62 118 4.0 14.0 0.00 0.00 0.00 49 1014.0
20260503202704 62 82 5.0 14.0 0.00 0.00 0.00 49 1014.0
20260503202202 62 115 4.0 13.0 0.00 0.00 0.00 48 1014.0
20260503201701 62 71 4.0 13.0 0.00 0.00 0.00 48 1014.0
20260503201201 62 94 5.0 11.0 0.00 0.00 0.00 48 1014.1
20260503200700 62 38 5.0 11.0 0.00 0.00 0.00 48 1014.1
20260503200205 62 49 5.0 10.0 0.00 0.00 0.00 48 1014.1
20260503195701 63 79 4.0 10.0 0.00 0.00 0.00 48 1014.1
20260503195156 63 96 5.0 13.0 0.00 0.00 0.00 48 1014.2
20260503194653 63 92 5.0 13.0 0.00 0.00 0.00 47 1014.1
20260503194150 63 29 5.0 13.0 0.00 0.00 0.00 47 1014.1
20260503193647 63 81 6.0 11.0 0.00 0.00 0.00 47 1014.2
20260503193146 64 65 5.0 13.0 0.00 0.00 0.00 46 1014.2
20260503192643 64 66 5.0 13.0 0.00 0.00 0.00 46 1014.2
20260503192141 64 111 5.0 12.0 0.00 0.00 0.00 46 1014.1
20260503191641 64 11 6.0 12.0 0.00 0.00 0.00 46 1014.1
20260503191142 64 107 7.0 15.0 0.00 0.00 0.00 46 1014.1
20260503190638 65 107 7.0 15.0 0.00 0.00 0.00 45 1014.1
20260503190137 65 96 5.0 12.0 0.00 0.00 0.00 45 1014.1
20260503185638 65 121 5.0 12.0 0.00 0.00 0.00 45 1014.1
20260503185138 65 107 6.0 14.0 0.00 0.00 0.00 45 1014.1
20260503184636 65 103 5.0 14.0 0.00 0.00 0.00 44 1014.1
20260503184134 66 76 4.0 11.0 0.00 0.00 0.00 44 1014.0
20260503183635 66 94 5.0 15.0 0.00 0.00 0.00 44 1014.0
20260503183133 66 77 6.0 15.0 0.00 0.00 0.00 43 1013.9
20260503182631 66 125 6.0 14.0 0.00 0.00 0.00 43 1013.8
20260503182131 67 92 6.0 15.0 0.00 0.00 0.00 43 1013.9
20260503181630 67 107 6.0 15.0 0.00 0.00 0.00 43 1013.9
20260503181129 67 111 7.0 15.0 0.00 0.00 0.00 43 1013.8
20260503180626 67 73 7.0 16.0 0.00 0.00 0.00 42 1013.9
20260503180120 68 118 6.0 16.0 0.00 0.00 0.00 42 1013.8
20260503175614 68 99 6.0 14.0 0.00 0.00 0.00 41 1013.8
20260503175103 69 108 7.0 16.0 0.00 0.00 0.00 41 1013.9
20260503174603 69 163 8.0 17.0 0.00 0.00 0.00 40 1013.8
20260503174101 69 142 8.0 21.0 0.00 0.00 0.00 40 1013.8
20260503173603 70 98 7.0 21.0 0.00 0.00 0.00 40 1013.8
20260503173102 70 118 6.0 14.0 0.00 0.00 0.00 39 1013.9
20260503172603 71 91 6.0 14.0 0.00 0.00 0.00 39 1013.8
20260503172102 71 75 6.0 14.0 0.00 0.00 0.00 39 1013.9
20260503171603 71 96 7.0 14.0 0.00 0.00 0.00 38 1013.8
20260503171102 72 100 7.0 15.0 0.00 0.00 0.00 37 1013.9
20260503170602 72 156 7.0 15.0 0.00 0.00 0.00 37 1013.8
20260503170105 72 154 6.0 15.0 0.00 0.00 0.00 37 1013.9